Location: Wellington
(41.3000°S, 174.8000°E)
Time: 08:57:16
(UTC+12:00)

ISS - Visible Passes

Search period start: 28 June 2017 00:00
Search period end: 08 July 2017 00:00
Orbit: 401 x 408 km, 51.6° (Epoch: 28 June)

Date Brightness Start Highest point End Pass type
(mag) Time Alt. Az. Time Alt. Az. Time Alt. Az.
28 Jun -1.8 18:19:48 10° NNE 18:21:50 15° NE 18:21:58 15° NE visible
29 Jun -2.8 19:02:27 10° NW 19:04:53 44° NNW 19:04:53 44° NNW visible
30 Jun -2.9 18:10:32 10° NNW 18:13:37 35° NE 18:15:01 24° E visible
30 Jun -0.5 19:47:04 10° W 19:47:42 14° W 19:47:42 14° W visible
01 Jul -3.2 18:54:30 10° WNW 18:57:45 51° SSW 18:57:45 51° SSW visible
02 Jul -3.8 18:02:09 10° NW 18:05:29 88° NE 18:07:45 19° SE visible
02 Jul -0.7 19:39:43 10° WSW 19:40:25 14° WSW 19:40:25 14° WSW visible
03 Jul -2.3 18:46:55 10° W 18:49:52 28° SSW 18:50:20 27° S visible
04 Jul -2.9 17:54:15 10° WNW 17:57:27 42° SSW 18:00:13 13° SE visible
04 Jul -0.7 19:32:27 10° SW 19:32:52 12° SW 19:32:52 12° SW visible
05 Jul -1.8 18:39:32 10° WSW 18:42:02 19° SSW 18:42:42 18° S visible
06 Jul -2.1 17:46:40 10° W 17:49:30 25° SSW 17:52:20 10° SE visible
06 Jul -0.7 19:24:59 10° SW 19:25:09 11° SSW 19:25:09 11° SSW visible
07 Jul -1.6 18:32:11 10° SW 18:34:14 15° S 18:34:56 14° S visible
